TimeHST,TemperatureF,Dew PointF,Humidity,Sea Level PressureIn,VisibilityMPH,Wind Direction,Wind SpeedMPH,Gust SpeedMPH,PrecipitationIn,Events,Conditions,WindDirDegrees,DateUTC
12:55 AM,74.8,64.2,69,30.00,10.0,East,8.1,-,N/A,,Mostly Cloudy,80,2013-08-18 10:55:00
1:55 AM,73.6,63.0,69,29.99,10.0,East,5.8,-,N/A,,Partly Cloudy,80,2013-08-18 11:55:00
2:55 AM,72.7,62.4,70,29.98,10.0,Calm,Calm,-,N/A,,Clear,0,2013-08-18 12:55:00
3:55 AM,70.7,61.9,74,29.97,10.0,Calm,Calm,-,N/A,,Scattered Clouds,0,2013-08-18 13:55:00
4:55 AM,68.5,62.2,80,29.98,10.0,Variable,4.6,-,N/A,,Clear,0,2013-08-18 14:55:00
5:55 AM,68.7,61.9,79,29.99,10.0,Calm,Calm,-,N/A,,Clear,0,2013-08-18 15:55:00
6:55 AM,68.2,63.0,83,30.00,10.0,Calm,Calm,-,N/A,,Clear,0,2013-08-18 16:55:00
7:55 AM,75.4,63.7,67,30.00,10.0,ENE,6.9,-,N/A,,Clear,60,2013-08-18 17:55:00
8:55 AM,78.1,63.7,61,30.01,10.0,ENE,10.4,-,N/A,,Scattered Clouds,70,2013-08-18 18:55:00
9:55 AM,80.4,65.1,59,30.02,10.0,SE,6.9,-,N/A,,Mostly Cloudy,130,2013-08-18 19:55:00
10:55 AM,79.2,64.9,62,30.02,10.0,ESE,10.4,-,N/A,,Mostly Cloudy,110,2013-08-18 20:55:00
11:55 AM,81.9,63.9,54,30.01,10.0,ESE,10.4,18.4,N/A,,Scattered Clouds,120,2013-08-18 21:55:00
12:55 PM,82.8,64.6,54,29.99,10.0,ENE,15.0,21.9,N/A,,Scattered Clouds,70,2013-08-18 22:55:00
1:55 PM,83.8,63.3,50,29.98,10.0,ESE,12.7,18.4,N/A,,Partly Cloudy,120,2013-08-18 23:55:00
2:55 PM,81.0,64.8,58,29.97,10.0,NE,12.7,-,N/A,,Mostly Cloudy,50,2013-08-19 00:55:00
3:55 PM,81.1,65.1,58,29.97,10.0,ENE,9.2,-,N/A,,Partly Cloudy,60,2013-08-19 01:55:00
4:55 PM,79.7,65.3,61,29.96,10.0,ENE,8.1,-,N/A,,Scattered Clouds,70,2013-08-19 02:55:00
5:55 PM,77.9,65.7,66,29.96,10.0,East,10.4,-,N/A,,Partly Cloudy,80,2013-08-19 03:55:00
6:55 PM,74.7,66.0,74,29.97,10.0,North,5.8,-,N/A,,Partly Cloudy,360,2013-08-19 04:55:00
7:55 PM,74.1,65.1,73,29.99,10.0,NE,5.8,-,N/A,,Partly Cloudy,40,2013-08-19 05:55:00
8:55 PM,74.1,65.1,73,30.01,10.0,Variable,5.8,-,N/A,,Mostly Cloudy,0,2013-08-19 06:55:00
9:55 PM,73.9,64.9,73,30.01,10.0,ENE,5.8,-,N/A,,Partly Cloudy,60,2013-08-19 07:55:00
10:55 PM,73.2,63.9,72,30.03,10.0,Calm,Calm,-,N/A,,Scattered Clouds,0,2013-08-19 08:55:00
11:55 PM,73.4,64.4,73,30.02,10.0,Calm,Calm,-,N/A,,Overcast,0,2013-08-19 09:55:00